Wind_Speed
12 14 15 16 17 17 17 17 18 19 20 20 20 19 17 19 18 17 18 18 17 19 20 23 22 23 26 27 29 30 31 31 31 25 21 16 8 5 5 5 6 7 9
17 13 14 16 17 18 17 17 18 19 20 20 20 19 18 20 20 19 18 18 17 19 19 23 23 22 24 25 27 28 29 30 29 26 22 16 10 4 6 10 8 9 8
22 16 15 15 16 17 18 18 19 20 20 21 20 19 20 19 20 19 19 18 17 21 23 22 23 20 21 24 25 27 29 30 29 25 21 16 9 6 8 10 7 6 3
28 22 18 17 16 16 17 19 20 21 21 22 23 21 21 21 21 20 20 20 19 22 24 25 24 20 20 23 23 24 26 28 25 24 19 15 8 6 7 8 7 4 6
32 29 25 26 25 25 26 26 26 26 27 25 24 23 21 22 22 21 21 22 21 22 26 25 22 20 18 21 22 23 24 26 25 22 17 14 9 4 6 6 7 7 10
32 30 31 33 33 32 26 29 30 28 28 24 25 24 23 22 24 25 26 25 22 22 23 23 21 18 18 19 20 20 20 22 22 20 16 13 9 5 6 9 11 11 13
29 31 33 33 26 27 23 25 25 15 24 19 26 28 22 22 23 24 26 28 28 21 21 19 20 16 17 17 17 18 17 19 20 20 16 12 9 7 7 10 13 14 19
28 26 12 21 24 20 24 16 17 23 21 17 22 24 23 22 22 25 26 29 29 19 18 15 18 16 15 15 15 15 16 17 18 19 17 13 9 8 7 7 12 15 17
7 2 5 10 12 18 17 17 18 18 21 21 21 22 25 24 26 29 31 34 32 14 15 12 16 16 13 13 11 13 14 15 17 17 16 14 11 8 8 7 10 13 18
4 5 5 14 11 15 16 16 13 10 11 14 16 18 22 23 31 38 41 43 38 51 18 11 16 16 15 11 10 10 13 13 14 15 16 14 11 8 7 7 7 9 12
7 8 7 14 14 13 14 16 18 16 17 19 23 24 23 26 32 43 48 49 43 15 21 16 12 14 13 10 10 6 11 11 13 13 14 15 12 9 6 5 7 8 8
13 13 13 14 13 14 15 16 17 14 11 13 15 20 22 21 29 13 12 8 12 31 19 15 12 13 11 10 10 7 8 8 11 10 11 13 13 10 8 4 4 8 9
23 23 22 21 21 18 17 17 19 17 12 13 14 14 11 12 8 3 13 12 5 7 9 8 9 8 9 9 10 9 9 8 9 10 8 10 11 10 8 7 4 5 9
30 30 30 30 29 25 21 19 22 22 17 13 14 12 8 8 8 10 7 6 1 5 6 6 9 9 10 10 11 9 8 8 6 8 8 7 8 10 7 7 7 7 8
31 30 29 28 28 30 27 25 24 24 23 19 16 17 15 15 12 10 9 7 10 10 10 10 10 11 12 11 11 12 10 10 8 8 7 6 6 7 8 5 6 7 9
28 30 28 27 28 30 29 26 26 27 26 25 23 23 22 22 20 19 16 13 12 12 14 12 12 14 15 14 13 13 13 13 11 10 8 7 5 6 6 5 3 4 8
27 28 26 26 25 26 29 28 24 26 27 27 26 26 25 23 22 20 21 19 16 14 14 16 16 17 19 19 16 15 16 16 16 12 11 10 8 5 3 4 3 2 5
24 24 24 22 21 22 24 26 25 24 27 29 27 27 28 28 25 24 22 22 21 20 17 19 20 20 20 20 21 20 21 20 19 17 14 13 11 9 5 2 3 2 4
21 23 22 21 21 20 20 22 25 26 26 27 26 27 26 27 25 26 24 23 24 23 22 23 22 20 18 19 25 27 25 24 21 18 16 17 14 11 10 6 5 5 5
21 22 23 24 23 22 20 20 24 27 31 25 24 27 24 25 25 25 25 23 22 21 22 21 18 16 14 14 18 27 25 26 21 17 21 19 14 14 15 12 9 8 7
23 26 25 23 24 24 23 21 24 26 29 30 28 28 26 24 23 23 23 23 23 22 21 17 16 15 15 14 13 16 18 21 22 25 22 20 17 13 17 17 14 12 11
22 26 26 26 24 23 24 24 24 28 27 32 34 32 26 26 23 24 24 22 23 22 20 18 17 17 15 12 11 9 16 13 15 20 20 19 20 14 19 18 18 16 14
24 28 31 30 28 26 26 26 27 29 30 28 35 34 29 26 26 24 24 23 23 23 22 20 19 19 18 15 13 12 13 15 17 18 21 22 19 14 17 18 20 19 17
29 35 28 24 23 26 28 26 29 30 31 32 30 31 31 30 29 28 26 26 27 25 25 24 24 22 21 16 15 15 16 18 18 20 22 20 18 21 20 23 23 25 25
30 34 30 24 19 21 24 27 28 30 27 31 28 31 29 28 27 27 26 27 28 27 26 26 25 23 19 15 15 17 16 17 16 18 19 19 17 16 19 16 24 26 29
26 29 27 21 16 12 17 22 26 27 26 26 21 22 26 23 22 19 20 21 22 22 22 22 20 18 15 13 15 17 18 18 18 18 17 16 22 24 18 21 24 27 23
Wind_Direction
265 251 244 239 243 247 251 256 259 262 267 271 277 282 286 288 290 294 297 300 314 319 326 326 334 334 336 342 347 351 349 353 356 355 359 358 358 345 18 50 76 100 106
231 240 240 243 243 244 244 247 251 257 262 267 273 280 284 286 290 296 297 301 313 321 326 326 333 334 335 338 346 352 350 354 0 3 9 6 7 25 78 87 98 98 105
225 224 227 231 236 242 246 250 254 258 264 271 274 276 280 283 287 290 292 296 309 316 323 331 329 335 335 336 345 353 352 354 4 9 16 16 21 71 105 115 110 101 60
222 225 230 239 242 247 249 255 261 267 271 273 274 276 278 281 282 285 287 292 304 312 316 323 326 331 333 333 342 355 353 355 9 10 20 29 45 100 123 120 103 42 12
220 226 235 235 244 251 256 257 258 261 267 270 272 274 274 272 276 278 280 284 294 304 311 312 319 327 330 331 342 356 354 357 6 13 21 35 47 95 126 117 58 47 12
223 223 242 241 244 244 253 259 261 263 266 273 285 282 280 278 278 276 276 278 287 299 309 307 312 323 324 329 342 354 358 358 1 18 19 37 52 57 99 81 70 54 36
243 234 225 246 262 263 241 282 273 274 280 264 276 270 278 276 276 284 286 287 292 295 301 302 306 318 319 326 342 355 360 1 3 17 25 35 54 75 95 84 69 56 51
242 246 238 255 249 259 266 267 279 254 271 264 283 276 268 274 280 283 282 285 292 281 289 293 300 308 317 322 341 358 1 4 5 14 28 33 57 74 97 87 80 72 75
215 178 0 321 282 270 264 272 268 265 267 276 277 274 264 278 278 280 282 288 295 292 270 283 295 298 305 316 332 354 0 7 4 11 25 41 45 71 89 99 83 81 80
249 213 262 302 280 269 274 276 273 272 274 276 298 293 276 274 277 279 278 273 275 268 232 239 275 288 293 301 310 341 352 13 5 10 14 34 55 56 82 105 112 92 89
269 264 231 257 284 290 295 291 278 276 283 281 283 287 285 286 288 285 276 267 272 250 284 230 240 264 278 288 293 327 349 9 9 11 11 19 39 64 73 93 121 125 92
264 266 270 273 273 280 282 290 293 292 287 288 287 282 276 300 303 325 60 32 252 209 211 210 217 244 263 281 290 303 335 354 359 8 11 14 26 50 70 94 122 134 145
283 289 290 284 285 279 276 275 278 289 285 285 292 290 297 328 14 57 94 85 94 196 208 206 216 239 261 267 285 294 308 343 2 356 11 8 13 36 66 99 150 150 152
288 286 284 286 285 284 272 261 262 267 274 273 270 269 256 192 126 114 84 40 358 264 253 239 231 235 252 270 277 278 278 307 341 352 346 3 8 11 39 83 120 172 169
285 283 278 275 275 279 279 272 260 251 251 256 257 258 243 232 228 225 241 236 251 254 246 242 244 249 249 255 263 269 271 283 301 313 329 336 350 9 5 49 107 145 183
282 284 283 281 276 273 275 273 268 261 247 240 239 247 248 246 239 239 254 264 258 257 256 249 249 252 255 256 253 257 268 268 279 295 303 312 313 337 357 4 68 133 168
288 290 290 287 280 277 276 274 266 258 252 245 234 235 248 250 252 244 245 247 248 252 259 255 250 250 252 256 255 251 263 266 271 282 290 287 286 285 317 350 341 140 159
289 289 292 294 293 287 276 271 266 256 247 246 239 233 241 251 252 253 242 236 238 239 249 252 251 251 254 258 261 255 256 260 270 277 279 276 275 268 248 261 296 262 196
286 288 289 291 292 288 281 270 261 251 245 251 243 240 237 250 249 249 249 240 232 231 240 245 254 257 260 260 256 259 255 254 258 265 275 271 258 255 246 229 244 246 226
292 288 289 289 287 286 280 267 257 255 244 244 238 244 238 236 238 236 237 234 233 232 235 238 245 254 259 271 272 246 243 246 263 255 255 244 255 259 241 235 228 238 222
300 304 294 288 288 282 275 268 258 255 253 239 231 243 233 233 230 230 223 222 222 223 229 236 248 260 267 274 280 242 237 256 251 241 244 235 244 266 252 237 230 228 229
308 308 304 290 279 275 272 264 257 252 254 245 238 235 232 225 225 222 223 223 224 226 232 238 247 260 267 276 274 262 226 239 226 234 235 241 253 276 262 228 224 225 226
313 315 305 288 276 267 264 261 253 251 250 249 243 238 231 228 225 229 228 228 230 232 235 241 249 259 265 266 267 254 243 239 235 235 228 239 251 252 265 236 229 232 228
319 325 319 305 275 258 250 251 251 249 247 245 245 235 230 229 230 232 231 235 236 235 236 241 247 257 265 258 253 246 243 243 242 235 232 235 240 239 243 232 232 231 221
329 330 325 318 285 259 245 247 247 249 247 247 235 235 223 223 226 232 232 229 231 233 236 242 250 258 260 254 244 245 248 247 248 241 244 227 231 236 233 241 244 227 222
334 332 330 323 312 262 251 250 246 247 245 240 224 242 228 219 222 216 223 218 231 231 235 240 243 247 254 256 255 256 249 247 251 251 227 236 230 240 242 242 244 227 224
Height
3201 3201 3201 3201 3203 3204 3205 3207 3207 3207 3207 3207 3207 3206 3205 3203 3201 3200 3198 3195 3194 3191 3188 3184 3180 3176 3171 3165 3158 3153 3146 3141 3135 3128 3123 3119 3116 3114 3112 3110 3109 3108 3108
3196 3197 3198 3199 3200 3201 3201 3202 3203 3204 3203 3202 3202 3203 3202 3200 3199 3197 3195 3193 3192 3189 3187 3182 3178 3174 3170 3165 3158 3153 3146 3141 3135 3127 3123 3119 3116 3114 3113 3112 3111 3111 3111
3191 3193 3194 3195 3196 3198 3199 3200 3200 3200 3200 3199 3199 3199 3198 3197 3197 3195 3193 3191 3190 3187 3185 3181 3178 3173 3169 3164 3158 3152 3145 3140 3134 3129 3123 3120 3118 3116 3115 3113 3114 3114 3113
3184 3188 3190 3193 3194 3195 3196 3197 3197 3197 3196 3196 3195 3195 3195 3194 3193 3193 3191 3188 3187 3185 3183 3180 3176 3172 3168 3165 3158 3153 3147 3141 3137 3130 3124 3122 3120 3118 3117 3116 3115 3114 3113
3180 3182 3185 3186 3189 3191 3192 3193 3192 3192 3192 3191 3191 3190 3189 3188 3189 3188 3187 3185 3184 3182 3179 3177 3174 3171 3167 3164 3159 3153 3148 3142 3137 3132 3126 3123 3122 3121 3120 3119 3118 3114 3113
3174 3176 3178 3181 3182 3183 3186 3189 3187 3187 3188 3189 3188 3186 3185 3185 3185 3184 3182 3180 3180 3179 3175 3174 3172 3169 3166 3164 3159 3154 3149 3145 3139 3135 3130 3124 3124 3123 3123 3122 3119 3117 3114
3170 3169 3171 3174 3176 3177 3180 3181 3182 3182 3184 3182 3182 3181 3181 3179 3178 3179 3179 3178 3178 3175 3172 3172 3170 3168 3166 3164 3160 3155 3150 3146 3142 3137 3133 3129 3125 3126 3126 3124 3122 3120 3117
3166 3164 3163 3167 3168 3173 3174 3174 3174 3176 3178 3178 3175 3174 3175 3173 3173 3172 3172 3172 3168 3169 3169 3168 3168 3166 3165 3163 3160 3155 3152 3147 3144 3139 3134 3132 3129 3126 3128 3128 3125 3123 3121
3158 3159 3159 3162 3165 3167 3168 3170 3168 3170 3171 3170 3169 3168 3167 3168 3167 3165 3166 3165 3165 3152 3165 3165 3165 3164 3163 3162 3160 3156 3153 3147 3144 3141 3137 3133 3133 3130 3128 3129 3129 3126 3124
3156 3154 3159 3161 3164 3165 3164 3165 3165 3165 3165 3164 3163 3161 3159 3162 3160 3157 3155 3155 3155 3156 3159 3156 3161 3162 3162 3160 3158 3156 3153 3149 3145 3142 3139 3136 3133 3133 3131 3129 3130 3130 3127
3157 3158 3156 3160 3161 3159 3158 3158 3158 3159 3158 3158 3157 3155 3153 3154 3152 3145 3140 3139 3144 3142 3150 3154 3154 3158 3159 3158 3157 3155 3153 3149 3147 3143 3140 3138 3137 3134 3133 3133 3130 3132 3133
3152 3153 3153 3155 3153 3154 3153 3153 3153 3153 3153 3152 3151 3149 3147 3149 3144 3137 3127 3129 3125 3141 3148 3149 3149 3153 3156 3155 3155 3153 3152 3149 3146 3144 3142 3139 3137 3137 3136 3134 3133 3133 3134
3145 3145 3146 3146 3146 3145 3147 3146 3148 3148 3149 3149 3148 3147 3145 3145 3139 3134 3132 3136 3137 3142 3145 3145 3147 3150 3152 3153 3152 3152 3151 3149 3146 3145 3142 3141 3138 3137 3137 3137 3135 3135 3135
3138 3138 3138 3138 3138 3138 3139 3141 3141 3142 3144 3145 3143 3143 3144 3145 3146 3142 3143 3141 3140 3143 3143 3144 3146 3147 3149 3150 3149 3149 3149 3147 3145 3144 3143 3142 3140 3139 3138 3137 3137 3137 3137
3131 3132 3132 3131 3130 3129 3131 3133 3134 3134 3136 3139 3139 3139 3141 3142 3143 3143 3141 3140 3141 3140 3141 3141 3142 3144 3147 3148 3147 3146 3145 3145 3144 3143 3142 3142 3142 3139 3140 3138 3138 3139 3138
3127 3124 3124 3123 3124 3124 3124 3125 3126 3128 3129 3130 3133 3133 3134 3137 3137 3138 3137 3137 3137 3137 3138 3138 3138 3141 3142 3143 3144 3143 3141 3142 3141 3141 3141 3141 3141 3140 3139 3139 3138 3139 3139
3120 3118 3117 3116 3117 3117 3116 3117 3119 3120 3121 3123 3126 3126 3126 3128 3129 3131 3133 3133 3133 3132 3134 3136 3136 3137 3138 3139 3139 3139 3138 3138 3138 3139 3140 3140 3140 3139 3139 3138 3138 3138 3139
3113 3111 3110 3109 3109 3110 3110 3109 3110 3111 3113 3115 3117 3119 3119 3119 3121 3123 3126 3127 3128 3128 3129 3131 3132 3133 3133 3133 3133 3133 3134 3134 3135 3135 3136 3137 3139 3138 3137 3137 3138 3138 3138
3107 3105 3104 3102 3101 3102 3102 3102 3103 3104 3106 3106 3108 3109 3113 3113 3114 3116 3117 3119 3121 3123 3124 3126 3126 3126 3127 3127 3127 3126 3128 3129 3130 3132 3134 3135 3135 3136 3136 3135 3136 3137 3138
3101 3100 3098 3096 3095 3093 3094 3095 3096 3098 3098 3100 3101 3102 3104 3107 3107 3109 3111 3112 3114 3116 3118 3119 3120 3120 3121 3121 3119 3119 3119 3122 3125 3126 3128 3131 3131 3131 3132 3133 3134 3136 3136
3095 3093 3092 3090 3087 3086 3086 3087 3088 3088 3089 3091 3093 3094 3096 3098 3100 3102 3105 3107 3109 3111 3112 3113 3114 3115 3116 3115 3114 3113 3115 3117 3118 3120 3122 3126 3127 3127 3128 3129 3131 3133 3135
3089 3087 3084 3082 3080 3078 3077 3078 3080 3081 3081 3082 3086 3087 3089 3091 3094 3097 3099 3100 3102 3104 3106 3107 3108 3110 3111 3111 3111 3109 3110 3112 3113 3116 3118 3121 3121 3124 3123 3125 3127 3129 3132
3082 3080 3075 3072 3070 3069 3069 3069 3070 3072 3073 3074 3076 3078 3080 3084 3087 3090 3093 3094 3097 3099 3100 3101 3103 3105 3106 3107 3107 3107 3107 3108 3110 3112 3113 3115 3117 3118 3118 3121 3123 3126 3128
3074 3068 3063 3058 3057 3057 3058 3059 3060 3062 3063 3065 3067 3070 3073 3076 3079 3082 3085 3088 3091 3092 3094 3096 3098 3100 3101 3101 3102 3103 3104 3105 3105 3107 3108 3110 3111 3112 3114 3116 3118 3120 3123
3067 3061 3056 3051 3048 3047 3049 3051 3051 3053 3054 3057 3059 3062 3065 3068 3072 3076 3078 3081 3083 3086 3088 3090 3092 3093 3094 3095 3097 3098 3099 3099 3100 3101 3102 3104 3106 3108 3110 3111 3112 3114 3117
3063 3058 3052 3047 3043 3042 3043 3044 3044 3046 3047 3050 3052 3057 3060 3063 3067 3070 3072 3075 3076 3079 3082 3084 3085 3086 3088 3089 3091 3092 3094 3094 3094 3095 3097 3098 3101 3103 3105 3106 3107 3110 3114